User: anonymous   Login
Location: Bédeille
(43.0872°N, 1.1041°E)
Time: 14:40:06
(UTC+00:00)
Language:

PSLV R/B - Orbit

View from above orbital plane
View from above orbital plane
View from above satellite
View from above satellite

Ground track
Ground track

The orbit data is extracted from the following two-line orbital elements,

1 38757U 12047C   24053.93519757  .00001686  00000-0  23078-3 0  9998
2 38757  98.2852 215.4330 0005185 191.1710 168.9386 14.79913876617698
Epoch (UTC): 22 February 2024 22:26:41
Eccentricity: 0.0005185
inclination: 98.2852°
perigee height: 626 km
apogee height: 633 km
right ascension of ascending node: 215.4330°
argument of perigee: 191.1710°
revolutions per day: 14.79913876
mean anomaly at epoch: 168.9386°
orbit number at epoch: 61769

The dashed part of the orbit path shows where the satellite is in the earth's shadow,  

DLR